Theta_e
322 322 321 319 318 316 316 316 316 316 316 317 317 316 316 316 319 322 321 319 316 316 316 314 313 313 315 318 322 325 325 325 324 322 326 329 336 338 338 335 336 340 336 338 339 342 347
323 323 322 320 318 316 315 316 316 316 316 316 317 317 316 316 317 321 321 321 317 316 316 315 314 313 315 321 322 324 324 325 324 323 326 327 333 335 336 335 336 334 337 339 340 343 346
323 322 321 320 318 316 315 315 316 316 316 316 317 317 316 316 317 320 321 321 318 316 316 316 315 312 317 321 322 323 325 325 324 324 326 326 327 332 335 335 332 334 340 338 338 342 344
322 322 321 319 318 316 315 315 315 316 316 316 317 317 316 316 317 319 321 321 318 317 317 316 316 313 316 316 320 325 324 323 323 323 324 327 330 334 334 333 334 338 341 338 336 340 344
322 321 320 319 317 316 315 315 316 316 316 317 317 317 316 316 316 318 321 321 317 317 317 317 317 319 319 316 318 321 323 325 323 324 324 327 330 333 334 336 338 341 339 336 336 335 339
322 322 321 319 317 316 315 315 315 316 316 317 317 317 317 319 316 318 320 319 317 317 317 317 317 322 319 319 319 321 323 326 327 324 324 328 332 335 334 336 339 338 336 334 335 334 335
321 321 321 320 319 317 316 315 316 316 316 318 318 317 319 321 317 318 320 318 320 322 319 322 321 322 323 322 319 322 325 326 328 328 330 330 334 336 334 333 332 333 333 334 334 334 343
322 322 321 320 320 318 317 315 315 316 317 319 319 318 320 322 317 318 320 322 320 322 326 321 320 320 321 321 322 323 324 327 328 331 330 331 333 333 331 331 332 333 333 334 334 334 340
321 322 322 322 321 319 318 317 315 316 316 320 320 318 320 321 320 317 320 321 320 322 328 326 324 323 323 322 324 325 326 327 329 330 330 330 331 329 330 332 333 333 333 333 333 335 343
320 320 321 322 322 321 319 317 315 316 317 321 321 318 321 321 320 317 320 319 322 321 330 328 327 326 325 325 324 325 326 327 328 330 330 329 329 329 331 334 332 333 331 331 333 336 338
321 320 320 321 321 321 320 319 316 315 317 322 322 318 321 321 321 319 322 320 319 321 334 327 327 325 325 326 325 324 326 326 328 328 329 330 329 330 332 334 331 333 331 332 333 335 336
322 321 321 320 321 322 321 319 317 315 317 322 321 319 321 322 320 320 321 321 321 332 335 328 327 327 327 326 327 324 325 325 326 329 329 330 329 329 332 331 330 331 331 333 334 333 337
322 321 321 321 321 321 321 320 318 315 317 322 320 320 322 322 326 324 322 323 332 336 331 330 328 328 329 329 328 326 326 327 330 331 331 331 331 331 330 332 332 331 332 334 334 335 335
322 322 322 322 321 321 321 320 319 315 317 322 322 321 324 326 324 322 323 328 335 332 332 330 329 329 329 329 330 330 329 330 331 331 332 334 334 332 331 332 333 332 332 334 337 335 334
322 322 322 322 322 321 321 321 319 316 317 323 323 321 324 325 323 323 326 332 334 333 331 329 328 330 330 329 330 330 332 332 332 332 334 334 334 330 330 331 331 333 333 332 333 332 333
322 322 322 322 322 321 321 321 319 316 318 324 324 323 325 325 324 323 328 326 331 329 330 329 331 331 332 331 330 330 331 331 330 330 330 334 335 332 330 329 329 331 331 332 333 335 335
322 322 321 321 322 321 321 321 319 317 317 326 325 329 325 326 324 326 330 330 328 328 329 331 331 331 332 331 331 331 333 334 333 334 330 332 333 335 333 334 334 332 333 332 332 333 335
320 321 321 321 321 321 320 321 319 316 317 325 328 333 323 323 328 328 330 328 324 331 330 331 331 332 333 334 332 333 335 335 331 332 333 332 334 336 335 332 331 332 334 334 335 336 335
320 320 320 320 321 320 320 321 319 315 316 327 333 328 323 324 331 330 329 329 329 331 331 332 333 333 334 335 337 336 335 331 330 332 334 332 334 337 336 334 333 334 335 335 335 334 335
319 319 319 319 320 319 320 320 319 315 316 324 330 331 327 327 327 329 331 332 332 328 330 331 333 334 335 335 335 337 336 331 329 331 324 328 334 336 337 337 336 336 335 335 335 336 336
318 318 318 318 318 318 319 320 317 315 316 323 326 330 327 330 329 330 330 330 331 332 329 330 332 333 334 336 335 335 333 332 329 326 329 331 335 336 336 334 334 334 335 335 335 335 337
318 318 318 317 317 317 319 320 316 315 316 320 326 326 327 330 329 330 324 332 331 330 331 332 333 331 332 334 333 334 331 331 330 329 330 329 332 332 334 333 333 333 335 336 337 338 339
318 318 317 317 317 317 319 320 315 314 314 319 318 321 324 325 329 330 331 330 329 329 328 328 329 330 330 328 326 326 325 326 326 327 327 328 328 331 330 331 331 333 333 335 336 338 339
318 317 317 317 317 317 318 320 315 314 313 314 314 318 326 332 329 329 327 326 327 328 330 327 327 329 325 324 323 324 324 326 326 326 324 328 328 328 329 330 330 335 333 332 333 333 333
317 317 317 316 317 316 318 319 315 314 313 312 313 317 321 330 326 326 325 326 326 325 327 327 326 325 325 324 327 328 328 329 329 328 326 326 331 331 331 332 334 334 333 332 333 334 332
316 316 316 316 317 317 318 316 315 314 313 312 312 312 319 322 327 324 325 325 328 329 328 327 325 325 325 328 328 330 330 330 332 329 328 329 329 332 333 332 332 336 330 327 329 334 331
316 316 316 316 315 316 316 314 314 313 312 312 313 314 318 320 320 323 325 326 323 325 328 326 325 327 326 328 328 327 327 330 331 331 331 331 332 332 332 331 334 329 327 327 333 335 327
316 316 316 315 315 315 315 313 313 313 312 311 313 316 316 319 319 319 321 323 321 321 325 324 325 326 327 328 327 328 328 329 329 329 330 331 329 328 328 328 327 327 326 329 329 326 325
316 316 316 316 316 316 314 313 312 311 311 311 312 316 316 316 319 317 318 320 322 321 321 322 327 327 327 328 328 328 328 328 328 330 326 327 326 328 325 328 327 325 326 325 326 327 327
Wind_Speed
23 24 24 25 24 23 21 19 18 17 15 13 11 9 7 7 7 7 7 8 7 6 6 6 7 8 7 6 6 6 5 6 13 13 9 5 5 3 5 6 7 3 11 12 13 8 7
23 23 24 25 25 25 24 22 22 20 18 15 12 10 7 7 7 7 7 8 8 7 6 5 6 7 6 11 9 6 4 5 11 11 8 5 2 4 6 6 5 14 14 10 7 6 4
22 23 24 25 25 26 26 24 23 23 21 17 13 11 7 6 7 7 7 7 8 8 6 5 5 7 8 7 7 5 3 7 10 8 5 5 4 5 7 6 9 12 8 5 6 6 4
22 23 24 25 26 26 26 26 26 25 22 19 13 10 6 5 6 7 7 8 9 8 6 5 4 4 6 11 10 6 4 8 10 6 4 2 2 5 5 9 6 6 5 6 9 4 3
23 24 25 26 27 28 28 28 27 27 25 20 14 11 7 6 7 8 8 8 10 9 6 5 3 3 5 8 11 9 8 5 8 7 5 4 2 5 8 7 6 4 7 10 8 5 8
24 25 25 27 28 29 29 30 29 29 27 21 15 12 7 4 7 9 9 10 10 8 6 4 5 5 6 8 10 11 9 9 6 9 7 7 7 10 7 7 3 7 10 11 12 10 9
25 25 26 27 28 29 30 31 30 30 28 22 16 11 5 2 9 12 13 12 5 3 11 5 4 2 6 6 11 11 13 9 7 10 11 10 10 11 2 3 6 8 9 12 12 8 12
28 27 27 28 29 30 31 32 32 31 28 22 19 10 4 3 10 14 17 7 3 2 5 13 7 6 4 5 12 14 13 12 9 12 6 8 12 6 3 7 8 8 10 6 7 8 8
31 31 30 30 30 31 32 33 33 32 29 22 19 9 3 5 10 16 19 8 7 1 6 6 8 7 6 8 14 19 18 12 11 11 11 13 5 4 3 7 9 9 8 8 13 14 5
33 33 32 32 32 32 33 34 34 33 29 23 17 7 2 6 10 15 14 13 9 5 6 7 8 6 7 7 9 14 19 13 7 10 8 9 10 9 10 9 9 9 3 7 12 11 8
34 35 35 34 34 34 34 34 35 33 28 23 14 3 3 12 8 15 9 17 5 3 5 8 7 6 9 8 15 13 17 11 11 10 7 4 6 9 11 10 4 6 5 9 10 12 9
36 36 36 36 36 36 35 35 35 34 27 21 10 1 7 5 10 11 11 12 6 6 4 8 8 11 12 9 6 13 17 12 5 8 10 14 7 6 9 5 9 9 12 14 11 9 6
36 37 37 37 37 37 37 36 35 34 26 16 6 3 8 11 4 10 14 10 6 5 5 9 11 13 14 10 11 16 15 15 9 9 11 11 15 15 10 14 16 14 12 7 6 6 7
36 37 38 39 38 37 37 37 36 35 26 13 3 5 10 6 6 16 12 7 6 3 3 6 10 14 11 12 9 12 14 13 13 7 3 6 11 11 9 12 6 6 9 4 3 1 5
35 37 38 39 39 37 37 37 36 35 26 8 1 6 12 7 10 18 7 7 3 2 2 9 13 16 9 13 5 10 11 10 7 13 5 3 4 6 3 3 7 7 7 8 3 4 6
36 36 37 38 38 38 36 36 36 34 24 3 6 7 7 9 9 9 7 1 2 3 2 7 12 12 13 15 9 8 8 1 6 7 12 2 4 4 7 4 4 7 4 6 4 2 3
35 35 36 37 38 37 35 35 35 33 22 2 8 5 7 10 6 8 6 1 2 1 3 6 5 8 9 10 11 9 8 6 1 3 9 8 5 8 5 11 2 6 8 6 6 5 8
35 35 35 36 37 36 35 33 34 33 22 1 2 3 9 14 7 3 6 1 2 2 1 3 2 4 9 8 9 6 6 2 1 4 5 10 5 7 3 4 3 5 8 8 7 3 3
34 33 34 35 36 36 34 32 31 31 22 3 1 3 10 6 5 7 3 4 3 4 2 1 3 1 3 6 4 4 7 4 3 2 2 6 7 7 11 8 7 8 5 7 8 9 12
33 34 34 35 34 34 33 31 29 29 19 3 2 4 6 7 5 7 3 3 4 2 3 3 3 4 7 6 2 6 7 4 3 2 3 2 11 9 12 8 6 4 6 5 11 11 11
32 33 34 34 33 32 31 30 29 27 17 3 3 2 3 6 9 6 4 0 4 3 2 1 4 2 1 4 5 5 3 5 5 2 3 5 12 13 12 8 10 10 8 8 10 13 10
32 32 32 33 32 31 29 28 28 27 17 9 5 5 3 2 2 7 5 4 2 5 2 3 3 5 3 3 5 1 2 2 4 3 5 4 9 8 14 8 9 11 5 6 5 7 10
31 29 30 31 31 29 27 25 26 26 23 8 9 5 3 2 4 6 4 3 3 2 4 5 4 2 5 7 5 4 5 5 5 5 4 5 6 6 13 3 8 13 11 5 3 4 6
28 28 29 30 30 27 25 23 22 23 23 15 14 5 5 2 4 1 1 2 1 2 1 4 3 1 4 1 3 2 3 3 1 5 9 4 7 5 5 4 10 7 5 2 4 2 1
26 27 29 29 29 24 23 21 19 18 18 14 12 6 4 3 2 3 3 1 3 4 3 2 4 3 2 5 3 4 5 5 5 4 5 4 6 3 5 9 6 7 3 1 4 2 1
27 27 29 28 26 21 22 20 17 17 16 14 9 10 3 6 3 2 2 1 4 5 5 4 3 2 4 5 4 7 5 2 5 6 0 4 4 7 3 7 5 9 5 3 3 8 7
27 27 28 28 24 22 22 19 17 15 15 14 8 9 3 5 1 2 2 2 1 2 3 3 3 5 4 6 7 6 5 3 5 6 5 5 4 8 5 6 6 5 3 2 7 6 9
27 27 27 24 23 22 22 18 16 15 15 14 6 7 6 5 8 3 2 1 1 3 5 5 4 6 5 6 5 4 5 4 4 3 2 4 3 3 2 3 6 4 3 5 9 14 12
27 26 24 22 21 21 20 17 16 16 15 13 6 9 13 5 6 5 6 7 3 1 2 2 4 1 3 2 2 1 4 4 2 5 2 3 3 4 3 4 4 3 7 10 11 13 15
Wind_Direction
24 22 21 18 16 15 16 13 6 358 350 340 333 319 299 275 254 243 237 226 216 211 207 207 210 208 205 226 245 207 200 208 200 200 203 230 252 313 334 355 340 273 334 323 326 310 272
21 19 17 15 13 11 11 10 6 0 354 342 332 321 301 277 251 234 229 223 211 204 202 203 205 205 196 232 228 225 222 205 194 189 204 219 288 322 295 342 322 327 322 314 349 344 295
20 17 15 14 11 9 7 6 4 1 355 347 334 325 303 271 246 225 220 217 205 197 195 197 201 205 228 212 214 224 193 163 171 178 195 221 258 276 338 312 334 315 314 331 12 354 310
19 17 14 11 9 7 5 3 1 359 356 349 338 329 310 265 235 217 207 206 195 192 191 188 193 195 238 227 215 185 161 172 174 176 173 189 220 280 298 314 277 306 261 357 0 322 42
18 16 14 11 8 6 3 2 359 358 355 350 342 332 311 267 224 205 196 189 185 188 189 183 181 198 220 217 208 202 178 173 174 185 180 163 228 275 260 272 273 222 346 356 347 297 311
18 16 13 10 8 5 2 1 357 355 354 350 342 333 318 260 206 191 181 172 174 186 190 192 213 228 223 183 186 178 172 153 166 168 177 207 224 247 223 254 349 329 337 335 336 339 307
17 14 12 9 7 5 2 359 356 353 352 351 344 335 319 242 191 181 166 143 142 206 208 220 186 292 141 172 172 176 172 165 165 195 212 203 239 223 238 347 300 302 311 317 336 354 323
20 15 10 8 6 4 1 358 356 352 350 348 344 333 298 215 187 183 176 186 225 151 193 222 230 241 190 152 169 175 174 193 203 219 207 206 233 247 276 266 265 287 298 325 340 348 316
21 17 12 8 5 3 1 358 355 352 349 346 341 330 270 215 185 186 187 194 165 124 246 161 203 217 196 191 192 182 184 202 215 223 217 250 109 103 240 237 254 263 297 341 332 322 163
20 17 14 10 5 2 0 357 355 352 349 345 341 327 249 180 165 189 199 195 186 355 225 134 185 170 176 185 189 179 193 194 208 236 225 260 255 241 251 245 266 266 7 300 318 322 357
17 16 13 10 6 2 359 357 355 352 349 345 341 320 162 169 160 161 195 194 177 297 194 150 143 166 172 209 133 179 186 200 239 203 230 118 191 208 232 246 247 289 268 302 309 301 297
13 12 10 8 6 3 359 357 355 352 350 346 345 219 182 194 167 177 172 177 176 230 127 149 142 173 176 184 158 150 184 217 262 241 222 268 265 264 261 267 243 282 276 278 258 266 222
11 10 8 5 3 2 359 357 355 352 350 347 351 171 167 149 166 175 159 154 221 271 153 152 172 173 184 159 143 159 177 193 202 202 213 219 232 224 243 245 242 239 257 254 221 196 50
5 4 3 3 0 360 358 356 355 353 349 345 348 170 165 154 157 153 152 216 247 114 128 131 164 173 181 163 157 177 175 191 216 254 268 236 162 194 185 236 318 223 275 262 204 213 90
359 358 358 359 358 358 357 355 355 355 351 352 63 165 175 157 153 159 221 224 67 75 108 155 157 169 171 181 190 181 205 210 203 207 264 197 165 151 225 234 251 146 229 3 290 175 253
354 354 354 355 355 356 356 355 355 357 356 24 131 132 171 170 152 180 245 1 137 357 283 213 170 195 177 184 193 200 173 119 231 237 240 61 259 191 135 190 189 289 4 219 193 261 286
351 352 352 353 354 355 355 356 355 357 360 72 140 184 193 176 152 206 230 159 281 51 257 215 181 173 186 169 208 194 167 121 261 172 228 244 252 138 204 210 186 173 215 231 302 299 311
348 348 349 350 352 354 355 357 358 356 3 5 206 198 166 157 218 230 230 247 357 324 196 197 238 155 165 158 182 188 180 13 359 229 196 219 267 255 261 103 278 286 293 281 265 223 221
347 348 349 349 351 353 355 357 1 357 359 26 263 111 168 182 234 210 182 249 276 350 96 185 135 317 168 150 153 162 135 109 76 199 211 185 239 247 190 183 186 226 202 269 280 291 280
355 354 352 351 351 352 355 356 1 0 0 359 259 171 171 219 270 285 212 188 191 53 77 68 99 153 149 140 91 153 153 136 122 117 15 234 264 268 290 17 335 235 227 252 275 272 281
353 352 351 352 353 354 356 357 2 6 6 47 334 55 339 188 206 226 262 256 213 155 115 92 123 99 163 157 154 148 173 173 177 125 231 274 267 275 274 294 279 296 278 258 255 272 280
346 348 349 352 354 355 358 359 2 10 19 36 3 348 321 292 222 228 170 176 209 139 301 121 147 97 72 86 16 128 275 224 284 160 251 238 267 281 265 243 256 250 247 257 265 266 263
346 348 350 353 354 356 359 1 3 10 24 38 9 343 315 138 208 227 191 161 132 192 75 57 97 126 115 67 24 355 307 293 285 268 241 265 256 243 262 216 254 248 245 259 287 276 308
348 350 352 353 354 355 358 1 5 10 17 28 6 354 301 150 245 269 231 215 165 119 125 89 102 248 92 82 109 87 137 123 55 243 235 236 224 229 271 188 234 74 77 42 303 249 266
350 350 350 350 352 356 357 0 4 8 11 18 17 15 335 278 320 185 185 163 152 130 128 142 84 80 146 176 197 171 183 205 109 79 189 238 230 198 248 231 114 169 157 303 311 206 193
351 350 350 349 351 357 357 359 2 5 8 13 11 8 338 305 110 349 252 264 229 205 166 151 103 93 190 240 216 234 219 238 182 159 221 143 222 247 178 272 265 74 89 2 288 259 84
348 348 348 349 355 357 357 357 1 3 5 7 2 9 0 290 309 298 254 319 291 240 280 153 178 196 216 227 235 233 221 318 210 210 180 189 245 253 221 264 111 80 41 307 246 54 342
344 346 347 352 352 354 354 355 357 359 360 4 342 360 16 294 284 263 258 254 239 240 259 99 202 203 217 235 249 178 251 177 207 57 212 232 257 200 240 260 238 65 249 273 358 320 323
342 344 347 348 349 349 350 352 350 349 351 353 345 340 334 250 273 260 236 222 199 121 310 208 355 89 21 245 229 167 186 183 198 181 171 213 338 7 295 50 76 339 309 309 309 302 304